Wind_Speed
2 2 2 2 2 3 5 7 8 8 8 8 8 8 8 8 8 8 8 8 8 8 8 8 7 7 7 7 6 6 6 6 6 6 6 6 6 6 7 8 8 9 9
3 3 3 3 3 3 4 6 6 6 6 6 6 6 6 7 7 7 8 7 8 8 7 7 7 7 6 6 6 5 5 5 5 5 6 5 5 6 6 7 8 8 9
4 4 4 4 4 3 3 4 4 4 4 4 5 5 5 6 6 7 7 7 7 7 7 7 7 6 6 5 5 4 3 4 4 4 4 5 5 5 6 7 7 8 9
5 5 5 6 5 4 3 3 2 2 2 3 4 4 5 6 6 6 7 7 7 7 7 6 7 6 6 5 4 3 2 2 3 3 3 4 4 5 6 6 7 8 8
6 7 7 7 6 5 4 2 1 0 1 2 3 4 5 5 6 7 7 7 7 7 7 6 6 6 6 5 4 3 1 0 1 1 2 3 4 5 6 6 7 7 7
7 9 8 7 6 6 4 3 2 1 1 2 3 4 5 6 6 7 8 8 8 7 7 7 7 7 6 5 4 3 2 2 1 1 2 3 4 5 6 5 6 7 7
9 10 10 8 7 6 5 4 3 2 2 3 3 5 6 7 8 9 9 9 9 9 8 8 7 7 7 6 5 4 3 2 3 2 2 3 4 5 6 6 6 6 7
12 11 11 10 8 7 7 6 5 4 3 3 4 6 7 9 10 10 11 11 11 10 10 10 9 8 8 7 6 5 5 4 4 4 4 4 4 5 6 7 7 7 7
13 13 13 11 10 9 8 7 5 4 4 4 5 6 8 9 11 11 12 12 12 12 12 12 11 10 9 9 8 7 6 6 5 5 5 5 6 6 7 7 7 8 8
14 14 13 12 11 9 8 7 6 6 6 6 7 8 9 11 12 13 13 13 14 14 14 13 12 11 10 10 10 9 8 7 7 6 7 7 7 8 8 9 9 9 9
15 15 14 12 12 11 9 8 8 7 7 8 9 9 10 12 12 14 14 14 15 15 14 14 13 12 12 11 11 11 10 9 9 9 9 9 9 10 10 10 11 11 11
16 16 16 14 13 12 10 9 8 8 8 8 9 9 10 12 12 13 14 15 15 15 14 14 13 13 13 12 12 11 11 11 11 11 11 12 12 12 13 13 13 13 13
18 18 16 16 14 13 11 9 9 9 9 9 10 10 10 11 12 12 13 14 14 15 14 13 14 13 13 13 12 12 12 12 13 13 13 13 14 14 15 15 15 16 16
18 18 17 16 15 14 12 11 10 10 10 10 10 11 11 11 11 11 12 13 13 13 12 12 12 13 12 12 12 12 12 12 13 14 14 14 15 16 16 17 17 18 18
19 19 18 17 16 14 12 12 10 10 10 10 11 10 10 10 10 11 12 12 13 12 12 12 12 13 13 13 13 12 12 12 13 14 15 15 16 16 17 18 19 20 20
18 20 19 19 18 15 13 12 12 11 11 11 10 10 10 10 10 11 11 12 13 12 13 13 14 14 14 14 14 14 14 14 14 15 16 16 17 17 17 17 18 21 21
19 21 20 18 17 15 13 12 11 10 11 10 10 10 9 9 10 10 11 12 13 13 13 14 14 15 16 16 16 16 16 17 17 17 17 17 18 18 18 18 19 20 22
17 19 18 16 15 13 11 10 9 9 9 9 8 8 8 9 10 11 12 13 13 14 14 14 15 15 16 16 17 17 17 17 18 18 19 19 19 20 20 20 20 21 23
15 15 16 15 13 12 10 9 8 7 7 7 7 8 9 10 11 11 12 13 14 14 15 15 16 16 16 16 17 17 18 18 18 18 19 20 21 22 22 22 22 22 23
14 14 14 14 13 11 9 8 7 6 5 5 7 8 9 10 10 11 12 13 14 14 15 15 15 16 16 17 17 18 19 19 19 18 19 20 21 22 22 23 24 24 24
13 14 14 13 12 10 9 7 6 5 5 5 6 7 8 9 10 11 12 13 13 14 14 15 15 16 16 17 17 18 19 19 19 19 19 20 21 22 23 24 25 26 26
11 12 11 11 11 9 7 6 5 5 5 5 6 6 7 8 9 10 11 11 12 13 14 15 15 16 16 17 17 18 19 19 19 20 20 21 22 23 24 24 26 27 28
10 10 9 10 8 7 6 5 4 4 4 4 4 5 6 7 8 9 10 11 12 13 14 15 15 16 16 17 18 18 19 20 21 21 21 21 22 23 24 25 26 27 28
9 9 8 8 7 7 6 5 4 3 3 3 4 5 6 7 8 9 10 11 12 13 14 14 15 16 16 17 18 19 20 21 22 22 23 23 23 24 25 26 27 27 28
9 8 8 7 6 6 5 5 4 3 3 3 3 4 5 6 7 9 10 11 12 13 14 15 15 16 17 18 19 19 20 21 22 23 24 25 25 26 26 27 28 29 29
8 7 7 6 6 6 5 4 3 3 3 3 3 4 5 6 8 10 11 12 13 14 15 16 17 18 18 19 20 21 21 22 23 24 25 26 27 27 28 29 30 31 31
Wind_Direction
227 256 269 228 180 139 119 106 98 90 82 73 62 50 41 34 30 28 27 27 27 28 31 31 32 37 41 44 46 53 63 69 78 84 87 90 97 104 107 111 111 113 113
236 240 241 221 198 164 134 117 104 91 80 69 59 48 38 28 23 22 21 20 20 20 22 25 27 30 33 37 41 46 58 67 79 87 91 96 101 105 110 116 117 119 118
248 243 233 214 206 187 153 128 111 87 66 53 44 35 25 16 10 9 10 10 11 12 14 16 18 19 21 24 29 37 51 64 78 88 94 101 109 116 124 125 124 126 125
251 245 231 220 215 209 187 155 127 86 50 34 25 17 7 2 359 355 356 358 0 2 4 5 8 10 12 14 15 21 43 58 73 87 104 117 123 128 133 135 135 134 133
250 244 237 229 220 217 207 194 181 116 9 3 2 359 351 348 345 343 340 342 344 347 349 349 352 356 357 358 355 347 341 18 73 104 126 139 143 147 148 145 146 142 138
247 242 238 229 221 217 211 208 218 248 288 313 330 335 333 331 330 329 329 328 329 333 337 337 335 335 335 333 333 326 295 267 241 194 174 166 160 159 159 159 157 151 147
246 241 234 226 223 220 217 220 228 244 267 290 309 314 314 315 317 317 317 318 317 319 321 322 322 324 321 320 316 308 292 266 243 229 211 195 185 179 176 175 172 168 162
244 241 234 225 220 221 222 225 233 245 261 281 297 306 309 309 309 309 308 307 308 310 309 309 307 308 307 305 304 296 286 275 256 245 233 217 206 199 193 191 188 182 176
242 240 236 226 220 222 223 227 235 242 257 275 290 301 302 304 304 305 306 306 306 305 302 301 302 297 295 294 295 289 278 273 265 253 243 233 222 214 209 205 201 195 191
240 236 231 224 220 220 225 231 239 244 256 273 287 297 300 300 299 300 302 301 302 302 299 294 292 293 289 288 287 284 275 268 264 258 248 241 233 226 220 217 212 209 206
238 229 226 225 224 222 226 234 242 248 261 276 287 293 296 298 298 298 297 297 297 298 296 292 289 288 288 282 281 280 271 267 265 261 253 245 239 234 229 225 223 218 214
224 225 224 224 225 224 227 234 244 252 265 278 287 291 294 296 296 297 297 297 296 297 293 290 288 286 286 282 277 276 268 263 264 261 257 251 246 242 237 233 228 224 220
222 220 219 222 223 221 226 232 243 251 263 274 281 286 291 296 296 297 297 295 296 298 294 291 288 284 283 281 275 272 270 264 262 260 257 254 251 247 242 238 232 227 224
219 214 217 218 218 220 226 231 239 249 260 270 278 284 289 290 291 294 297 296 296 297 295 293 291 285 286 283 280 277 271 268 261 257 257 257 254 250 246 242 237 231 229
216 214 214 212 213 221 226 228 238 246 257 268 276 284 287 286 287 291 297 296 297 295 294 294 290 286 286 283 282 281 276 272 263 260 260 258 255 253 251 249 243 234 229
214 213 214 214 214 219 222 228 237 248 259 268 275 281 286 287 288 294 297 299 298 295 295 295 293 290 289 287 282 280 276 273 269 265 263 257 254 254 254 251 246 238 232
211 210 210 207 212 216 221 229 235 247 257 264 273 282 284 286 288 293 296 297 297 296 295 295 293 292 289 286 283 281 279 276 273 268 264 259 257 255 253 250 247 244 240
212 205 198 201 210 213 217 220 230 246 254 264 272 278 282 285 286 290 294 296 298 298 297 297 296 294 291 288 284 282 281 277 274 269 264 262 259 255 252 252 250 247 244
199 192 187 193 197 199 206 213 225 243 251 261 269 276 284 288 288 290 293 295 297 298 298 298 296 294 293 290 287 285 281 279 277 272 267 265 262 259 255 252 251 248 246
183 181 182 185 185 195 205 214 224 237 248 261 271 279 285 288 292 293 296 300 301 302 302 301 298 297 295 293 290 287 283 280 278 276 272 268 264 260 257 254 252 249 247
180 180 182 185 190 200 207 216 222 236 254 264 274 283 289 297 300 300 302 303 304 305 306 305 303 300 297 295 291 288 285 282 279 276 273 270 267 263 258 255 253 251 248
176 177 179 190 195 202 203 205 219 241 260 276 287 297 305 308 309 310 309 308 309 309 309 308 306 304 300 297 294 291 289 285 281 277 274 271 267 264 261 259 256 252 250
167 178 184 189 191 192 196 205 219 242 267 282 292 302 306 310 316 317 315 315 316 316 315 312 310 308 305 302 298 295 292 289 286 282 278 273 269 266 264 261 259 255 252
172 173 176 180 187 193 198 206 219 240 262 282 294 300 307 314 319 321 320 320 320 320 320 317 314 311 308 305 302 299 295 292 289 286 282 277 272 268 265 263 260 258 255
171 170 172 179 183 188 191 200 212 230 255 277 292 307 315 321 324 325 324 324 323 322 322 320 319 317 314 310 307 304 300 296 292 289 285 281 275 270 266 263 261 259 257
171 174 172 172 175 178 186 194 208 230 246 266 295 313 320 324 328 331 331 329 329 328 326 323 320 317 314 312 309 307 304 299 295 291 287 283 279 274 270 265 262 259 257
Height
5893 5894 5895 5895 5895 5895 5895 5895 5896 5896 5897 5898 5898 5898 5899 5899 5899 5899 5899 5899 5899 5898 5898 5898 5898 5897 5897 5897 5897 5897 5896 5896 5897 5897 5897 5897 5897 5897 5897 5898 5898 5898 5899
5893 5894 5894 5895 5895 5895 5895 5895 5895 5896 5897 5898 5898 5899 5899 5899 5899 5899 5899 5899 5899 5899 5898 5898 5898 5897 5897 5897 5897 5897 5897 5897 5897 5897 5897 5898 5898 5898 5898 5899 5899 5899 5900
5892 5893 5893 5894 5894 5894 5894 5895 5895 5896 5897 5897 5898 5898 5899 5899 5899 5899 5899 5898 5898 5898 5898 5898 5898 5897 5897 5897 5897 5897 5897 5897 5897 5898 5898 5898 5899 5899 5899 5900 5900 5901 5901
5891 5892 5892 5893 5893 5894 5894 5895 5895 5896 5896 5897 5897 5897 5898 5898 5898 5898 5898 5898 5898 5898 5898 5898 5898 5897 5897 5897 5897 5897 5897 5897 5898 5898 5898 5899 5899 5900 5900 5901 5901 5902 5902
5890 5891 5891 5891 5892 5893 5893 5894 5895 5895 5896 5896 5897 5897 5897 5897 5897 5897 5897 5897 5897 5898 5898 5897 5897 5897 5897 5897 5897 5897 5897 5897 5898 5898 5898 5899 5899 5900 5901 5901 5902 5902 5903
5889 5890 5890 5891 5891 5892 5892 5893 5894 5895 5895 5896 5896 5896 5896 5897 5896 5896 5896 5896 5896 5897 5897 5897 5897 5896 5897 5897 5897 5897 5897 5897 5897 5898 5898 5899 5899 5900 5901 5902 5902 5903 5903
5888 5888 5889 5890 5890 5891 5892 5892 5893 5894 5894 5895 5895 5895 5895 5895 5895 5895 5895 5895 5895 5895 5895 5895 5895 5895 5895 5896 5896 5896 5896 5896 5897 5898 5898 5899 5899 5900 5901 5902 5902 5903 5903
5886 5887 5888 5888 5889 5890 5890 5891 5892 5893 5894 5894 5894 5894 5894 5894 5894 5893 5893 5893 5893 5893 5893 5894 5894 5894 5894 5894 5894 5895 5895 5896 5896 5897 5897 5898 5899 5900 5900 5901 5902 5903 5904
5884 5885 5886 5887 5888 5889 5890 5890 5891 5892 5892 5893 5893 5893 5893 5893 5892 5892 5891 5891 5891 5891 5891 5891 5892 5892 5892 5892 5893 5893 5893 5894 5895 5896 5896 5897 5898 5899 5900 5901 5902 5903 5903
5882 5882 5884 5885 5886 5887 5888 5889 5890 5891 5891 5892 5892 5891 5891 5891 5890 5890 5890 5889 5889 5889 5889 5889 5889 5889 5889 5890 5890 5891 5891 5892 5893 5894 5895 5896 5897 5898 5899 5900 5901 5902 5903
5878 5880 5882 5883 5884 5885 5886 5887 5888 5889 5890 5890 5890 5889 5889 5889 5888 5888 5887 5887 5886 5886 5886 5886 5886 5886 5887 5887 5888 5888 5889 5890 5891 5892 5893 5894 5895 5896 5897 5898 5899 5901 5902
5876 5878 5879 5881 5882 5883 5884 5886 5887 5887 5888 5888 5888 5887 5887 5887 5886 5886 5885 5885 5884 5883 5883 5883 5883 5884 5884 5884 5885 5886 5887 5888 5889 5889 5890 5891 5892 5893 5894 5896 5897 5899 5900
5873 5875 5877 5878 5879 5881 5882 5883 5884 5885 5885 5886 5886 5885 5885 5885 5884 5884 5883 5882 5882 5881 5881 5881 5881 5881 5881 5882 5883 5883 5884 5885 5886 5887 5888 5888 5889 5891 5892 5893 5894 5896 5898
5868 5871 5873 5875 5877 5878 5880 5881 5882 5882 5883 5883 5883 5883 5883 5883 5883 5882 5881 5880 5880 5879 5879 5878 5878 5879 5879 5880 5880 5880 5881 5882 5882 5883 5884 5885 5886 5887 5888 5889 5891 5893 5895
5864 5867 5870 5872 5874 5876 5877 5878 5879 5880 5881 5881 5881 5881 5881 5881 5881 5880 5880 5879 5878 5878 5877 5877 5876 5876 5877 5877 5877 5878 5878 5879 5879 5880 5881 5882 5883 5884 5885 5886 5887 5889 5891
5860 5863 5866 5869 5871 5873 5874 5875 5876 5877 5878 5879 5879 5879 5879 5879 5879 5879 5878 5877 5877 5876 5875 5875 5874 5874 5874 5874 5874 5875 5875 5876 5876 5877 5877 5878 5879 5880 5881 5882 5883 5885 5886
5856 5859 5862 5865 5868 5870 5871 5872 5874 5875 5876 5876 5877 5877 5877 5877 5877 5877 5876 5876 5875 5874 5873 5873 5872 5872 5871 5871 5871 5871 5872 5872 5872 5873 5874 5875 5875 5876 5877 5878 5879 5881 5882
5853 5856 5858 5862 5865 5868 5869 5871 5872 5873 5874 5874 5875 5875 5875 5875 5875 5875 5874 5873 5873 5872 5871 5871 5870 5869 5868 5868 5868 5868 5868 5868 5868 5869 5869 5870 5871 5872 5873 5874 5875 5876 5878
5851 5853 5857 5860 5863 5866 5868 5869 5870 5871 5872 5873 5873 5873 5873 5873 5873 5872 5872 5871 5870 5869 5869 5868 5867 5866 5866 5865 5865 5864 5864 5864 5864 5865 5865 5866 5866 5867 5868 5869 5870 5872 5873
5849 5852 5856 5858 5862 5864 5866 5868 5869 5870 5870 5871 5871 5871 5871 5871 5871 5870 5869 5868 5868 5867 5866 5865 5864 5863 5862 5861 5861 5860 5860 5860 5860 5860 5861 5861 5862 5862 5863 5864 5866 5867 5868
5848 5851 5854 5858 5861 5863 5865 5866 5867 5868 5869 5869 5869 5869 5869 5869 5868 5868 5867 5866 5865 5865 5863 5862 5861 5860 5859 5858 5857 5856 5856 5856 5856 5856 5856 5856 5857 5857 5858 5859 5860 5862 5863
5848 5850 5853 5857 5859 5862 5863 5865 5866 5867 5868 5868 5868 5867 5867 5867 5866 5865 5865 5864 5863 5862 5861 5859 5858 5857 5855 5855 5854 5853 5852 5852 5852 5852 5852 5851 5852 5852 5853 5853 5854 5856 5857
5848 5851 5853 5856 5858 5860 5861 5863 5864 5865 5866 5866 5866 5865 5865 5865 5864 5863 5863 5862 5861 5859 5858 5856 5855 5853 5852 5851 5850 5849 5848 5847 5847 5847 5846 5846 5846 5847 5847 5847 5848 5849 5851
5849 5851 5853 5855 5857 5858 5859 5861 5862 5863 5864 5864 5864 5864 5864 5863 5862 5861 5861 5859 5858 5857 5855 5853 5852 5850 5849 5847 5846 5844 5843 5842 5841 5841 5841 5841 5841 5841 5841 5841 5842 5843 5844
5848 5850 5852 5854 5855 5857 5859 5860 5861 5862 5862 5863 5863 5863 5862 5862 5861 5860 5858 5857 5856 5854 5852 5851 5849 5847 5845 5844 5842 5840 5839 5837 5836 5835 5834 5834 5834 5834 5834 5835 5835 5835 5836
5848 5850 5851 5853 5854 5856 5858 5859 5859 5860 5861 5861 5861 5861 5860 5860 5859 5858 5856 5855 5853 5851 5849 5848 5846 5844 5842 5840 5838 5836 5834 5832 5831 5829 5828 5827 5826 5826 5827 5827 5827 5828 5829